This is the latest recevied weather packets stored in our database for station/object KE5WTH-14. If no packets are shown the sender has not sent any weather packets the latest 1 day(s).
| Time | Temp. | Humidity | Pressure | Rain* | Wind** | Luminosity | Snow |
|---|---|---|---|---|---|---|---|
| 1777977689 | 22.22° C | 83% | 1003.6 hPa | 0 mm | 4.92 m/s, 202° | 0 W/m² | - |
| 1777977632 | 22.22° C | 82% | 1003.6 hPa | 0 mm | 4.92 m/s, 175° | 0 W/m² | - |
| 1777977602 | 22.22° C | 83% | 1003.7 hPa | 0 mm | 5.81 m/s, 183° | 0 W/m² | - |
| 1777977569 | 22.22° C | 82% | 1003.6 hPa | 0 mm | 5.36 m/s, 214° | 0 W/m² | - |
| 1777977539 | 22.22° C | 82% | 1003.6 hPa | 0 mm | 3.13 m/s, 185° | 0 W/m² | - |
| 1777977509 | 22.22° C | 82% | 1003.7 hPa | 0 mm | 2.68 m/s, 210° | 0 W/m² | - |
| 1777977352 | 22.22° C | 82% | 1003.7 hPa | 0 mm | 4.02 m/s, 203° | 0 W/m² | - |
| 1777977322 | 22.22° C | 83% | 1003.8 hPa | 0 mm | 4.92 m/s, 159° | 0 W/m² | - |
| 1777977292 | 22.22° C | 83% | 1003.6 hPa | 0 mm | 4.47 m/s, 197° | 0 W/m² | - |
| 1777977262 | 22.22° C | 83% | 1003.7 hPa | 0 mm | 4.47 m/s, 228° | 0 W/m² | - |
| 1777977106 | 22.22° C | 83% | 1003.8 hPa | 0 mm | 4.47 m/s, 118° | 0 W/m² | - |
| 1777977078 | 22.22° C | 83% | 1003.7 hPa | 0 mm | 4.47 m/s, 216° | 0 W/m² | - |
| 1777977050 | 22.22° C | 83% | 1003.8 hPa | 0 mm | 3.58 m/s, 185° | 0 W/m² | - |
| 1777977017 | 22.22° C | 83% | 1003.8 hPa | 0 mm | 2.68 m/s, 230° | 0 W/m² | - |
| 1777976858 | 22.22° C | 83% | 1003.8 hPa | 0 mm | 3.13 m/s, 171° | 0 W/m² | - |
| 1777976829 | 22.22° C | 83% | 1003.7 hPa | 0 mm | 4.02 m/s, 219° | 0 W/m² | - |
| 1777976799 | 22.22° C | 83% | 1003.8 hPa | 0 mm | 3.58 m/s, 185° | 0 W/m² | - |
| 1777976771 | 22.22° C | 83% | 1003.7 hPa | 0 mm | 4.02 m/s, 197° | 0 W/m² | - |
| 1777976604 | 22.22° C | 83% | 1003.6 hPa | 0 mm | 4.02 m/s, 193° | 0 W/m² | - |
| 1777976544 | 22.22° C | 83% | 1003.7 hPa | 0 mm | 4.47 m/s, 197° | 0 W/m² | - |
| 1777976484 | 22.22° C | 83% | 1003.6 hPa | 0 mm | 4.47 m/s, 230° | 0 W/m² | - |
| 1777976426 | 22.22° C | 83% | 1003.6 hPa | 0 mm | 4.02 m/s, 193° | 0 W/m² | - |
| 1777976366 | 22.22° C | 83% | 1003.7 hPa | 0 mm | 4.02 m/s, 190° | 0 W/m² | - |
| 1777976305 | 22.22° C | 83% | 1003.7 hPa | 0 mm | 4.47 m/s, 213° | 0 W/m² | - |
| 1777976244 | 22.22° C | 83% | 1003.6 hPa | 0 mm | 4.02 m/s, 182° | 0 W/m² | - |
* Rain latest hour (hover to see other rain measurements)
** Current wind speed in m/s (hover to see current wind gust speed)